contact: severine.martini@mio.osupytheas.fr, dominique.lefevre@mio.osupytheas.fr
Project:EMSO Ligure-ouest http://www.emso-fr.org/EMSO-France
Sensor Optode, line 4330 Serial 272 
DOI : "https://doi.org/10.17882/97948" 
Title:EMSO Ligure Ouest : Data BathyDock capteur Optode - deploiement "2023-04-28"
Datetime,Profondeur,Latitude,Longitude,optode_type,serial,O2_concentration,O2_saturation,Temperature,Calibrated_Phase,Temp_Compensated_Phase,phase_blue_light,phase_red_light,Amplitude_blue_light,Amplitude_red_light,thermistor_bridge
time,m,degree_north,degree_east,1,1,umol.l-1,%,degree_C,degree,degree,degree,degree,mV,mV,mV
2023-11-06T00:00:07,2420,42.8014,5.9826,4330,272,186.709,57.185,13.311,36.023,36.603,41.194,4.591,295.5,544.1,291.2
2023-11-06T00:03:07,2420,42.8014,5.9826,4330,272,186.601,57.158,13.316,36.028,36.608,41.200,4.592,295.5,544.2,291.0
2023-11-06T00:06:07,2420,42.8014,5.9826,4330,272,186.817,57.224,13.316,36.014,36.594,41.186,4.592,295.4,544.1,291.0
2023-11-06T00:09:07,2420,42.8014,5.9826,4330,272,186.429,57.108,13.318,36.038,36.618,41.208,4.589,295.5,544.2,291.0
2023-11-06T00:12:07,2420,42.8014,5.9826,4330,272,186.399,57.108,13.325,36.037,36.617,41.208,4.591,295.5,544.1,290.7
2023-11-06T00:15:07,2420,42.8014,5.9826,4330,272,186.423,57.116,13.326,36.035,36.615,41.211,4.596,295.4,544.1,290.7
2023-11-06T00:18:07,2420,42.8014,5.9826,4330,272,186.564,57.150,13.318,36.029,36.609,41.201,4.592,295.5,544.1,291.0
2023-11-06T00:21:08,2420,42.8014,5.9826,4330,272,186.513,57.127,13.313,36.035,36.615,41.207,4.592,295.5,544.1,291.1
2023-11-06T00:24:08,2420,42.8014,5.9826,4330,272,186.259,57.068,13.327,36.045,36.625,41.216,4.591,295.5,544.2,290.7
2023-11-06T00:27:08,2420,42.8014,5.9826,4330,272,186.420,57.114,13.325,36.035,36.615,41.210,4.595,295.5,544.1,290.7
2023-11-06T00:30:08,2420,42.8014,5.9826,4330,272,186.309,57.081,13.326,36.042,36.622,41.216,4.594,295.6,544.1,290.7
2023-11-06T00:33:07,2420,42.8014,5.9826,4330,272,186.445,57.112,13.317,36.038,36.618,41.206,4.589,295.5,544.1,291.0
2023-11-06T00:36:07,2420,42.8014,5.9826,4330,272,186.459,57.114,13.315,36.038,36.618,41.208,4.590,295.6,544.1,291.0
2023-11-06T00:39:07,2420,42.8014,5.9826,4330,272,186.392,57.090,13.313,36.043,36.623,41.214,4.592,295.5,544.1,291.1
2023-11-06T00:42:07,2420,42.8014,5.9826,4330,272,186.294,57.063,13.315,36.048,36.628,41.216,4.588,295.5,544.1,291.1
2023-11-06T00:45:07,2420,42.8014,5.9826,4330,272,186.341,57.077,13.314,36.045,36.625,41.217,4.592,295.6,544.1,291.1
2023-11-06T00:48:07,2420,42.8014,5.9826,4330,272,186.427,57.101,13.312,36.041,36.621,41.214,4.593,295.5,544.1,291.1
2023-11-06T00:51:07,2420,42.8014,5.9826,4330,272,186.261,57.052,13.314,36.051,36.631,41.218,4.587,295.4,544.1,291.1
2023-11-06T00:54:07,2420,42.8014,5.9826,4330,272,186.852,57.229,13.311,36.013,36.594,41.186,4.593,295.5,544.1,291.2
2023-11-06T00:57:08,2420,42.8014,5.9826,4330,272,186.580,57.147,13.312,36.031,36.611,41.202,4.591,295.4,544.0,291.1
2023-11-06T01:00:08,2420,42.8014,5.9826,4330,272,186.602,57.165,13.321,36.026,36.606,41.199,4.594,295.5,544.1,290.9
2023-11-06T01:03:07,2420,42.8014,5.9826,4330,272,186.237,57.050,13.318,36.050,36.630,41.219,4.590,295.5,544.1,291.0
2023-11-06T01:06:07,2420,42.8014,5.9826,4330,272,186.353,57.087,13.320,36.042,36.622,41.212,4.590,295.5,544.0,290.9
2023-11-06T01:09:07,2420,42.8014,5.9826,4330,272,186.535,57.139,13.316,36.032,36.612,41.200,4.588,295.5,544.1,291.0
2023-11-06T01:12:07,2420,42.8014,5.9826,4330,272,186.559,57.149,13.319,36.029,36.609,41.198,4.589,295.4,544.1,290.9
2023-11-06T01:15:07,2420,42.8014,5.9826,4330,272,186.457,57.115,13.317,36.037,36.617,41.206,4.589,295.5,544.1,291.0
2023-11-06T01:18:07,2420,42.8014,5.9826,4330,272,186.703,57.189,13.315,36.021,36.602,41.196,4.594,295.5,544.0,291.1
2023-11-06T01:21:07,2420,42.8014,5.9826,4330,272,186.395,57.101,13.320,36.039,36.619,41.212,4.593,295.5,544.0,290.9
2023-11-06T01:24:07,2420,42.8014,5.9826,4330,272,186.393,57.097,13.318,36.040,36.620,41.213,4.592,295.6,544.1,291.0
2023-11-06T01:27:08,2420,42.8014,5.9826,4330,272,186.572,57.149,13.315,36.030,36.610,41.198,4.588,295.4,544.0,291.1
2023-11-06T01:30:08,2420,42.8014,5.9826,4330,272,186.443,57.106,13.313,36.040,36.620,41.212,4.592,295.4,544.1,291.1
2023-11-06T01:33:07,2420,42.8014,5.9826,4330,272,186.459,57.115,13.316,36.038,36.618,41.210,4.593,295.5,544.0,291.0
2023-11-06T01:36:07,2420,42.8014,5.9826,4330,272,186.706,57.193,13.318,36.020,36.600,41.194,4.594,295.4,544.1,291.0
2023-11-06T01:39:07,2420,42.8014,5.9826,4330,272,186.572,57.149,13.316,36.029,36.610,41.206,4.596,295.5,544.0,291.0
2023-11-06T01:42:07,2420,42.8014,5.9826,4330,272,186.505,57.130,13.316,36.034,36.614,41.205,4.591,295.5,544.1,291.0
2023-11-06T01:45:07,2420,42.8014,5.9826,4330,272,186.637,57.167,13.314,36.027,36.607,41.202,4.595,295.5,544.1,291.1
2023-11-06T01:48:07,2420,42.8014,5.9826,4330,272,186.526,57.130,13.312,36.035,36.615,41.205,4.590,295.5,544.1,291.2
2023-11-06T01:51:07,2420,42.8014,5.9826,4330,272,186.438,57.112,13.319,36.037,36.617,41.211,4.595,295.5,544.1,290.9
2023-11-06T01:54:08,2420,42.8014,5.9826,4330,272,186.443,57.115,13.320,36.036,36.616,41.205,4.588,295.5,544.1,290.9
2023-11-06T01:57:08,2420,42.8014,5.9826,4330,272,186.426,57.112,13.322,36.036,36.616,41.208,4.591,295.5,544.0,290.8
2023-11-06T02:00:08,2420,42.8014,5.9826,4330,272,186.570,57.156,13.322,36.027,36.607,41.197,4.590,295.5,544.0,290.8
2023-11-06T02:03:07,2420,42.8014,5.9826,4330,272,186.371,57.107,13.331,36.036,36.616,41.206,4.591,295.5,544.1,290.5
2023-11-06T02:06:07,2420,42.8014,5.9826,4330,272,186.302,57.087,13.332,36.039,36.619,41.209,4.589,295.5,544.0,290.5
2023-11-06T02:09:07,2420,42.8014,5.9826,4330,272,186.436,57.126,13.330,36.032,36.612,41.206,4.594,295.6,543.9,290.6
2023-11-06T02:12:07,2420,42.8014,5.9826,4330,272,186.543,57.167,13.336,36.021,36.602,41.197,4.595,295.5,544.0,290.4
2023-11-06T02:15:07,2420,42.8014,5.9826,4330,272,186.265,57.077,13.333,36.041,36.621,41.210,4.588,295.6,544.0,290.5
2023-11-06T02:18:07,2420,42.8014,5.9826,4330,272,186.408,57.114,13.328,36.035,36.615,41.208,4.593,295.6,544.0,290.6
2023-11-06T02:21:07,2420,42.8014,5.9826,4330,272,186.322,57.099,13.336,36.036,36.616,41.210,4.593,295.6,544.1,290.4
2023-11-06T02:24:07,2420,42.8014,5.9826,4330,272,186.159,57.042,13.331,36.049,36.629,41.218,4.588,295.6,544.0,290.5
2023-11-06T02:27:08,2420,42.8014,5.9826,4330,272,186.115,57.040,13.340,36.048,36.628,41.223,4.595,295.6,544.1,290.3
2023-11-06T02:30:08,2420,42.8014,5.9826,4330,272,186.183,57.063,13.342,36.042,36.622,41.215,4.593,295.6,543.9,290.2
2023-11-06T02:33:07,2420,42.8014,5.9826,4330,272,185.912,56.970,13.334,36.064,36.644,41.234,4.590,295.7,544.0,290.5
2023-11-06T02:36:07,2420,42.8014,5.9826,4330,272,185.947,56.982,13.335,36.061,36.641,41.230,4.589,295.7,544.0,290.4
2023-11-06T02:39:07,2420,42.8014,5.9826,4330,272,185.934,56.976,13.333,36.063,36.642,41.236,4.594,295.7,544.0,290.5
2023-11-06T02:42:07,2420,42.8014,5.9826,4330,272,186.091,57.021,13.331,36.053,36.633,41.225,4.592,295.7,544.0,290.5
2023-11-06T02:45:07,2420,42.8014,5.9826,4330,272,186.038,57.005,13.331,36.057,36.637,41.230,4.593,295.7,544.0,290.5
2023-11-06T02:48:07,2420,42.8014,5.9826,4330,272,186.000,56.984,13.323,36.063,36.643,41.232,4.589,295.7,544.1,290.8
2023-11-06T02:51:07,2420,42.8014,5.9826,4330,272,186.128,57.020,13.321,36.056,36.636,41.223,4.586,295.6,544.1,290.9
2023-11-06T02:54:07,2420,42.8014,5.9826,4330,272,186.006,56.987,13.325,36.063,36.642,41.234,4.592,295.6,544.1,290.8
2023-11-06T02:57:08,2420,42.8014,5.9826,4330,272,186.551,57.152,13.323,36.028,36.608,41.195,4.588,295.5,544.1,290.8
2023-11-06T03:00:08,2420,42.8014,5.9826,4330,272,186.359,57.092,13.322,36.040,36.620,41.210,4.589,295.6,544.1,290.8
2023-11-06T03:03:07,2420,42.8014,5.9826,4330,272,186.296,57.068,13.319,36.046,36.626,41.216,4.590,295.6,544.1,290.9
2023-11-06T03:06:07,2420,42.8014,5.9826,4330,272,186.305,57.076,13.323,36.044,36.624,41.215,4.591,295.6,544.1,290.8
2023-11-06T03:09:08,2420,42.8014,5.9826,4330,272,186.248,57.060,13.323,36.047,36.627,41.215,4.589,295.5,544.1,290.8
2023-11-06T03:12:08,2420,42.8014,5.9826,4330,272,186.339,57.090,13.325,36.040,36.620,41.212,4.592,295.6,544.1,290.7
2023-11-06T03:15:08,2420,42.8014,5.9826,4330,272,186.365,57.095,13.323,36.040,36.620,41.212,4.592,295.7,544.1,290.8
2023-11-06T03:18:08,2420,42.8014,5.9826,4330,272,186.242,57.067,13.330,36.044,36.624,41.220,4.596,295.6,544.1,290.6
2023-11-06T03:21:08,2420,42.8014,5.9826,4330,272,186.198,57.055,13.332,36.047,36.626,41.221,4.594,295.7,544.0,290.5
2023-11-06T03:24:07,2420,42.8014,5.9826,4330,272,186.196,57.038,13.319,36.053,36.633,41.218,4.585,295.7,544.1,290.9
2023-11-06T03:27:07,2420,42.8014,5.9826,4330,272,186.100,57.015,13.324,36.056,36.636,41.226,4.590,295.6,544.1,290.8
2023-11-06T03:30:07,2420,42.8014,5.9826,4330,272,186.228,57.047,13.318,36.051,36.631,41.221,4.591,295.7,544.0,291.0
2023-11-06T03:33:07,2420,42.8014,5.9826,4330,272,186.174,57.044,13.329,36.050,36.630,41.218,4.589,295.6,544.1,290.6
2023-11-06T03:36:07,2420,42.8014,5.9826,4330,272,186.368,57.098,13.324,36.039,36.619,41.210,4.591,295.6,544.0,290.8
2023-11-06T03:39:07,2420,42.8014,5.9826,4330,272,185.874,56.943,13.322,36.072,36.652,41.242,4.591,295.7,544.1,290.8
2023-11-06T03:42:07,2420,42.8014,5.9826,4330,272,186.262,57.074,13.331,36.042,36.622,41.217,4.595,295.6,544.0,290.5
2023-11-06T03:45:07,2420,42.8014,5.9826,4330,272,186.199,57.050,13.327,36.048,36.628,41.217,4.589,295.7,544.0,290.7
2023-11-06T03:48:08,2420,42.8014,5.9826,4330,272,186.238,57.064,13.329,36.045,36.625,41.220,4.594,295.6,544.0,290.6
2023-11-06T03:51:08,2420,42.8014,5.9826,4330,272,186.343,57.076,13.314,36.046,36.626,41.222,4.597,295.6,544.1,291.1
2023-11-06T03:54:08,2420,42.8014,5.9826,4330,272,186.408,57.094,13.312,36.042,36.622,41.212,4.590,295.5,544.1,291.2
2023-11-06T03:57:08,2420,42.8014,5.9826,4330,272,186.421,57.100,13.313,36.041,36.621,41.214,4.594,295.5,544.1,291.1
2023-11-06T04:00:08,2420,42.8014,5.9826,4330,272,186.418,57.105,13.318,36.039,36.619,41.209,4.590,295.5,544.1,291.0
2023-11-06T04:03:07,2420,42.8014,5.9826,4330,272,186.164,57.031,13.321,36.054,36.634,41.224,4.590,295.5,544.1,290.9
2023-11-06T04:06:07,2420,42.8014,5.9826,4330,272,186.263,57.053,13.315,36.050,36.630,41.222,4.592,295.6,544.2,291.1
2023-11-06T04:09:07,2420,42.8014,5.9826,4330,272,186.497,57.128,13.317,36.034,36.614,41.203,4.589,295.6,544.1,291.0
2023-11-06T04:12:07,2420,42.8014,5.9826,4330,272,186.472,57.119,13.316,36.036,36.616,41.206,4.591,295.6,544.0,291.0
2023-11-06T04:15:07,2420,42.8014,5.9826,4330,272,186.416,57.105,13.318,36.038,36.618,41.207,4.588,295.6,544.0,290.9
2023-11-06T04:18:07,2420,42.8014,5.9826,4330,272,186.252,57.057,13.320,36.048,36.628,41.217,4.588,295.6,544.1,290.9
2023-11-06T04:21:07,2420,42.8014,5.9826,4330,272,186.218,57.047,13.321,36.050,36.630,41.222,4.592,295.6,544.1,290.9
2023-11-06T04:24:08,2420,42.8014,5.9826,4330,272,186.306,57.075,13.322,36.044,36.624,41.217,4.593,295.5,544.1,290.8
2023-11-06T04:27:08,2420,42.8014,5.9826,4330,272,186.278,57.064,13.320,36.047,36.627,41.218,4.591,295.6,544.1,290.9
2023-11-06T04:30:08,2420,42.8014,5.9826,4330,272,186.439,57.120,13.324,36.034,36.614,41.211,4.597,295.6,544.1,290.8
2023-11-06T04:33:07,2420,42.8014,5.9826,4330,272,186.205,57.040,13.318,36.052,36.632,41.223,4.591,295.6,544.1,291.0
2023-11-06T04:36:07,2420,42.8014,5.9826,4330,272,186.200,57.036,13.317,36.054,36.634,41.227,4.593,295.6,544.1,291.0
2023-11-06T04:39:07,2420,42.8014,5.9826,4330,272,186.475,57.122,13.318,36.035,36.616,41.203,4.588,295.6,544.2,291.0
2023-11-06T04:42:07,2420,42.8014,5.9826,4330,272,186.196,57.033,13.315,36.055,36.635,41.224,4.589,295.5,544.1,291.1
2023-11-06T04:45:07,2420,42.8014,5.9826,4330,272,186.403,57.095,13.313,36.042,36.622,41.217,4.595,295.5,544.2,291.1
2023-11-06T04:48:07,2420,42.8014,5.9826,4330,272,186.110,57.012,13.319,36.058,36.638,41.223,4.585,295.5,544.1,290.9
2023-11-06T04:51:08,2420,42.8014,5.9826,4330,272,186.316,57.082,13.324,36.042,36.622,41.215,4.592,295.5,544.2,290.8
2023-11-06T04:54:08,2420,42.8014,5.9826,4330,272,186.140,57.024,13.321,36.055,36.635,41.224,4.589,295.6,544.2,290.9
2023-11-06T04:57:08,2420,42.8014,5.9826,4330,272,186.160,57.040,13.329,36.050,36.630,41.221,4.591,295.5,544.1,290.6
2023-11-06T05:00:08,2420,42.8014,5.9826,4330,272,186.171,57.049,13.333,36.048,36.628,41.215,4.587,295.6,544.1,290.5
2023-11-06T05:03:07,2420,42.8014,5.9826,4330,272,186.304,57.080,13.326,36.042,36.622,41.213,4.591,295.5,544.1,290.7
2023-11-06T05:06:07,2420,42.8014,5.9826,4330,272,186.353,57.086,13.319,36.043,36.623,41.215,4.592,295.6,544.1,290.9
2023-11-06T05:09:07,2420,42.8014,5.9826,4330,272,186.557,57.147,13.317,36.030,36.610,41.207,4.597,295.5,544.1,291.0
2023-11-06T05:12:07,2420,42.8014,5.9826,4330,272,186.118,57.018,13.322,36.056,36.636,41.224,4.588,295.5,544.2,290.8
2023-11-06T05:15:07,2420,42.8014,5.9826,4330,272,186.248,57.053,13.318,36.050,36.630,41.216,4.586,295.6,544.1,291.0
2023-11-06T05:18:07,2420,42.8014,5.9826,4330,272,186.302,57.067,13.316,36.047,36.627,41.217,4.590,295.6,544.2,291.0
2023-11-06T05:21:07,2420,42.8014,5.9826,4330,272,186.528,57.140,13.319,36.031,36.611,41.199,4.588,295.5,544.1,290.9
2023-11-06T05:24:07,2420,42.8014,5.9826,4330,272,186.400,57.096,13.315,36.041,36.621,41.210,4.589,295.6,544.2,291.1
2023-11-06T05:27:08,2420,42.8014,5.9826,4330,272,186.293,57.062,13.315,36.048,36.628,41.225,4.596,295.6,544.1,291.1
2023-11-06T05:30:08,2420,42.8014,5.9826,4330,272,186.495,57.119,13.311,36.037,36.617,41.209,4.592,295.6,544.1,291.2
2023-11-06T05:33:07,2420,42.8014,5.9826,4330,272,186.648,57.181,13.323,36.022,36.602,41.195,4.593,295.5,544.2,290.8
2023-11-06T05:36:07,2420,42.8014,5.9826,4330,272,186.540,57.137,13.314,36.033,36.613,41.205,4.592,295.5,544.2,291.1
2023-11-06T05:39:07,2420,42.8014,5.9826,4330,272,186.445,57.110,13.316,36.038,36.618,41.211,4.593,295.4,544.2,291.0
2023-11-06T05:42:08,2420,42.8014,5.9826,4330,272,186.629,57.160,13.310,36.029,36.609,41.199,4.590,295.5,544.1,291.2
2023-11-06T05:45:08,2420,42.8014,5.9826,4330,272,186.619,57.153,13.307,36.031,36.611,41.204,4.593,295.6,544.2,291.3
2023-11-06T05:48:08,2420,42.8014,5.9826,4330,272,186.238,57.043,13.313,36.053,36.633,41.222,4.589,295.5,544.2,291.1
2023-11-06T05:51:08,2420,42.8014,5.9826,4330,272,186.451,57.108,13.312,36.039,36.620,41.208,4.589,295.5,544.2,291.1
2023-11-06T05:54:07,2420,42.8014,5.9826,4330,272,186.483,57.117,13.312,36.037,36.618,41.207,4.590,295.5,544.1,291.2
2023-11-06T05:57:07,2420,42.8014,5.9826,4330,272,186.681,57.172,13.308,36.026,36.606,41.200,4.593,295.5,544.2,291.3
2023-11-06T06:00:07,2420,42.8014,5.9826,4330,272,186.586,57.145,13.309,36.032,36.612,41.207,4.594,295.6,544.1,291.3
2023-11-06T06:03:08,2420,42.8014,5.9826,4330,272,186.703,57.185,13.312,36.023,36.603,41.204,4.601,295.5,544.1,291.2
2023-11-06T06:06:07,2420,42.8014,5.9826,4330,272,186.400,57.092,13.312,36.043,36.623,41.208,4.585,295.5,544.2,291.2
2023-11-06T06:09:07,2420,42.8014,5.9826,4330,272,186.727,57.190,13.311,36.022,36.602,41.191,4.589,295.5,544.2,291.2
2023-11-06T06:12:07,2420,42.8014,5.9826,4330,272,186.713,57.197,13.319,36.018,36.599,41.190,4.591,295.5,544.2,290.9
2023-11-06T06:15:07,2420,42.8014,5.9826,4330,272,186.436,57.103,13.313,36.040,36.620,41.211,4.591,295.4,544.1,291.1
2023-11-06T06:18:07,2420,42.8014,5.9826,4330,272,186.480,57.114,13.310,36.038,36.618,41.207,4.588,295.5,544.2,291.2
2023-11-06T06:21:07,2420,42.8014,5.9826,4330,272,186.574,57.144,13.311,36.031,36.612,41.199,4.587,295.4,544.1,291.2
2023-11-06T06:24:07,2420,42.8014,5.9826,4330,272,186.749,57.194,13.308,36.022,36.602,41.199,4.597,295.5,544.1,291.3
2023-11-06T06:27:08,2420,42.8014,5.9826,4330,272,186.578,57.141,13.308,36.033,36.613,41.202,4.589,295.5,544.2,291.3
2023-11-06T06:30:08,2420,42.8014,5.9826,4330,272,186.617,57.158,13.312,36.028,36.608,41.195,4.587,295.4,544.2,291.2
2023-11-06T06:33:07,2420,42.8014,5.9826,4330,272,186.597,57.160,13.318,36.027,36.607,41.203,4.595,295.4,544.1,291.0
2023-11-06T06:36:07,2420,42.8014,5.9826,4330,272,186.287,57.061,13.315,36.048,36.628,41.220,4.592,295.5,544.2,291.1
2023-11-06T06:39:07,2420,42.8014,5.9826,4330,272,186.671,57.174,13.312,36.026,36.606,41.197,4.591,295.4,544.1,291.2
2023-11-06T06:42:07,2420,42.8014,5.9826,4330,272,186.536,57.134,13.313,36.033,36.613,41.199,4.586,295.4,544.1,291.1
2023-11-06T06:45:07,2420,42.8014,5.9826,4330,272,186.528,57.130,13.311,36.035,36.615,41.207,4.593,295.5,544.1,291.2
2023-11-06T06:48:08,2420,42.8014,5.9826,4330,272,186.561,57.143,13.313,36.032,36.612,41.205,4.593,295.5,544.2,291.1
2023-11-06T06:51:08,2420,42.8014,5.9826,4330,272,186.742,57.193,13.310,36.022,36.602,41.191,4.589,295.5,544.2,291.2
2023-11-06T06:54:08,2420,42.8014,5.9826,4330,272,186.601,57.148,13.308,36.032,36.612,41.201,4.589,295.5,544.2,291.3
2023-11-06T06:57:08,2420,42.8014,5.9826,4330,272,186.499,57.122,13.312,36.036,36.616,41.206,4.589,295.5,544.2,291.2
2023-11-06T07:00:08,2420,42.8014,5.9826,4330,272,186.870,57.236,13.313,36.012,36.592,41.186,4.594,295.5,544.2,291.1
2023-11-06T07:03:07,2420,42.8014,5.9826,4330,272,186.799,57.214,13.312,36.017,36.597,41.192,4.595,295.4,544.1,291.2
2023-11-06T07:06:07,2420,42.8014,5.9826,4330,272,186.410,57.095,13.312,36.042,36.622,41.211,4.589,295.4,544.2,291.2
2023-11-06T07:09:07,2420,42.8014,5.9826,4330,272,186.682,57.182,13.315,36.023,36.603,41.193,4.591,295.4,544.1,291.1
2023-11-06T07:12:07,2420,42.8014,5.9826,4330,272,186.367,57.082,13.312,36.045,36.625,41.214,4.590,295.4,544.2,291.2
2023-11-06T07:15:07,2420,42.8014,5.9826,4330,272,186.693,57.187,13.316,36.022,36.602,41.195,4.593,295.5,544.2,291.0
2023-11-06T07:18:08,2420,42.8014,5.9826,4330,272,186.677,57.176,13.312,36.025,36.605,41.196,4.591,295.4,544.1,291.2
2023-11-06T07:21:08,2420,42.8014,5.9826,4330,272,186.524,57.133,13.314,36.033,36.613,41.201,4.588,295.5,544.1,291.1
2023-11-06T07:24:08,2420,42.8014,5.9826,4330,272,186.707,57.188,13.314,36.022,36.602,41.195,4.593,295.4,544.1,291.1
2023-11-06T07:27:08,2420,42.8014,5.9826,4330,272,186.326,57.068,13.311,36.048,36.628,41.215,4.587,295.4,544.2,291.2
2023-11-06T07:30:08,2420,42.8014,5.9826,4330,272,186.618,57.161,13.314,36.027,36.607,41.193,4.586,295.4,544.2,291.1
2023-11-06T07:33:07,2420,42.8014,5.9826,4330,272,186.726,57.191,13.312,36.022,36.602,41.187,4.586,295.4,544.1,291.2
2023-11-06T07:36:07,2420,42.8014,5.9826,4330,272,186.474,57.117,13.314,36.037,36.617,41.207,4.589,295.4,544.1,291.1
2023-11-06T07:39:07,2420,42.8014,5.9826,4330,272,186.881,57.239,13.312,36.011,36.591,41.180,4.588,295.4,544.1,291.2
2023-11-06T07:42:07,2420,42.8014,5.9826,4330,272,186.594,57.151,13.312,36.031,36.611,41.199,4.588,295.4,544.2,291.2
2023-11-06T07:45:07,2420,42.8014,5.9826,4330,272,186.669,57.173,13.311,36.026,36.606,41.198,4.592,295.4,544.1,291.2
2023-11-06T07:48:07,2420,42.8014,5.9826,4330,272,186.487,57.116,13.310,36.038,36.618,41.212,4.594,295.4,544.1,291.2
2023-11-06T07:51:08,2420,42.8014,5.9826,4330,272,186.703,57.183,13.311,36.024,36.604,41.194,4.590,295.4,544.2,291.2
2023-11-06T07:54:08,2420,42.8014,5.9826,4330,272,186.444,57.103,13.311,36.041,36.621,41.206,4.585,295.4,544.2,291.2
2023-11-06T07:57:08,2420,42.8014,5.9826,4330,272,186.843,57.226,13.311,36.014,36.595,41.187,4.593,295.5,544.2,291.2
2023-11-06T08:00:08,2420,42.8014,5.9826,4330,272,186.742,57.195,13.311,36.021,36.602,41.196,4.595,295.4,544.2,291.2
2023-11-06T08:03:07,2420,42.8014,5.9826,4330,272,186.547,57.135,13.310,36.034,36.614,41.200,4.586,295.4,544.1,291.2
2023-11-06T08:06:07,2420,42.8014,5.9826,4330,272,186.686,57.174,13.308,36.026,36.606,41.196,4.590,295.4,544.2,291.3
2023-11-06T08:09:07,2420,42.8014,5.9826,4330,272,186.830,57.218,13.308,36.016,36.597,41.187,4.590,295.4,544.2,291.3
2023-11-06T08:12:07,2420,42.8014,5.9826,4330,272,186.714,57.184,13.309,36.024,36.604,41.190,4.586,295.4,544.1,291.3
2023-11-06T08:15:07,2420,42.8014,5.9826,4330,272,186.688,57.176,13.309,36.025,36.605,41.195,4.589,295.4,544.2,291.3
2023-11-06T08:18:08,2420,42.8014,5.9826,4330,272,186.636,57.159,13.308,36.029,36.609,41.204,4.594,295.4,544.1,291.3
2023-11-06T08:21:08,2420,42.8014,5.9826,4330,272,186.633,57.160,13.309,36.029,36.609,41.196,4.588,295.4,544.1,291.3
2023-11-06T08:24:08,2420,42.8014,5.9826,4330,272,186.543,57.131,13.309,36.035,36.615,41.210,4.594,295.4,544.1,291.3
2023-11-06T08:27:08,2420,42.8014,5.9826,4330,272,186.642,57.162,13.309,36.029,36.609,41.196,4.587,295.4,544.1,291.3
2023-11-06T08:30:08,2420,42.8014,5.9826,4330,272,186.609,57.151,13.309,36.031,36.611,41.205,4.594,295.3,544.2,291.3
2023-11-06T08:33:07,2420,42.8014,5.9826,4330,272,186.799,57.207,13.307,36.019,36.599,41.184,4.585,295.4,544.2,291.3
2023-11-06T08:36:07,2420,42.8014,5.9826,4330,272,186.675,57.172,13.309,36.027,36.607,41.198,4.592,295.4,544.2,291.3
2023-11-06T08:39:07,2420,42.8014,5.9826,4330,272,186.945,57.253,13.308,36.010,36.590,41.179,4.589,295.4,544.2,291.3
2023-11-06T08:42:07,2420,42.8014,5.9826,4330,272,186.854,57.225,13.308,36.015,36.595,41.192,4.596,295.4,544.2,291.3
2023-11-06T08:45:07,2420,42.8014,5.9826,4330,272,186.670,57.169,13.308,36.027,36.607,41.203,4.595,295.4,544.2,291.3
2023-11-06T08:48:08,2420,42.8014,5.9826,4330,272,186.760,57.198,13.309,36.020,36.601,41.192,4.591,295.3,544.2,291.3
2023-11-06T08:51:08,2420,42.8014,5.9826,4330,272,187.018,57.279,13.310,36.004,36.584,41.182,4.598,295.4,544.2,291.2
2023-11-06T08:54:08,2420,42.8014,5.9826,4330,272,186.597,57.151,13.311,36.030,36.610,41.202,4.592,295.4,544.2,291.2
2023-11-06T08:57:08,2420,42.8014,5.9826,4330,272,186.742,57.192,13.308,36.022,36.602,41.192,4.590,295.4,544.1,291.3
2023-11-06T09:00:08,2420,42.8014,5.9826,4330,272,186.935,57.252,13.309,36.010,36.590,41.180,4.590,295.4,544.2,291.3
2023-11-06T09:03:07,2420,42.8014,5.9826,4330,272,186.827,57.218,13.308,36.017,36.597,41.191,4.594,295.4,544.2,291.3
2023-11-06T09:06:07,2420,42.8014,5.9826,4330,272,186.726,57.189,13.310,36.023,36.603,41.195,4.591,295.5,544.2,291.2
2023-11-06T09:09:07,2420,42.8014,5.9826,4330,272,186.661,57.167,13.308,36.028,36.608,41.196,4.588,295.4,544.1,291.3
2023-11-06T09:12:07,2420,42.8014,5.9826,4330,272,186.645,57.163,13.309,36.028,36.608,41.201,4.593,295.4,544.2,291.3
2023-11-06T09:15:08,2420,42.8014,5.9826,4330,272,186.677,57.171,13.308,36.026,36.607,41.195,4.588,295.4,544.2,291.3
2023-11-06T09:18:08,2420,42.8014,5.9826,4330,272,186.672,57.170,13.308,36.027,36.607,41.202,4.594,295.4,544.2,291.3
2023-11-06T09:21:08,2420,42.8014,5.9826,4330,272,186.786,57.205,13.308,36.020,36.600,41.190,4.590,295.4,544.2,291.3
2023-11-06T09:24:08,2420,42.8014,5.9826,4330,272,186.777,57.203,13.308,36.020,36.600,41.189,4.589,295.3,544.1,291.3
2023-11-06T09:27:08,2420,42.8014,5.9826,4330,272,186.788,57.203,13.306,36.020,36.600,41.192,4.591,295.4,544.2,291.4
2023-11-06T09:30:08,2420,42.8014,5.9826,4330,272,186.759,57.195,13.307,36.022,36.602,41.195,4.593,295.3,544.1,291.3
2023-11-06T09:33:07,2420,42.8014,5.9826,4330,272,186.814,57.211,13.306,36.019,36.599,41.187,4.588,295.4,544.2,291.4
2023-11-06T09:36:07,2420,42.8014,5.9826,4330,272,186.721,57.185,13.308,36.024,36.604,41.196,4.592,295.4,544.2,291.3
2023-11-06T09:39:07,2420,42.8014,5.9826,4330,272,186.766,57.197,13.307,36.021,36.601,41.192,4.591,295.4,544.2,291.3
2023-11-06T09:42:07,2420,42.8014,5.9826,4330,272,186.912,57.240,13.306,36.013,36.593,41.182,4.589,295.4,544.2,291.4
2023-11-06T09:45:07,2420,42.8014,5.9826,4330,272,186.707,57.179,13.306,36.025,36.605,41.190,4.585,295.4,544.2,291.3
2023-11-06T09:48:07,2420,42.8014,5.9826,4330,272,186.554,57.131,13.306,36.036,36.616,41.207,4.591,295.3,544.1,291.4
2023-11-06T09:51:07,2420,42.8014,5.9826,4330,272,186.548,57.127,13.304,36.037,36.617,41.203,4.586,295.4,544.2,291.4
2023-11-06T09:54:07,2420,42.8014,5.9826,4330,272,186.967,57.254,13.303,36.010,36.590,41.182,4.592,295.4,544.3,291.4
2023-11-06T09:57:08,2420,42.8014,5.9826,4330,272,186.680,57.165,13.302,36.029,36.609,41.197,4.588,295.4,544.2,291.5
2023-11-06T10:00:08,2420,42.8014,5.9826,4330,272,186.865,57.223,13.303,36.017,36.597,41.184,4.587,295.3,544.2,291.5